Погода в Мостовском

Россия / Свердловская область     57°09′48″N   60°38′58″E
темп.,
°C
ветер,
м/с
пор.,
м/с
влажн.,
%
обл.,
%
осадки,
мм/ч
давл.,
гПа
погр.,
м
25 января, пн
пн2523:00−18ююв2497100 1.3 1028182
02:00−16ююв1297100 0.3 102761
05:00−15юз0097100 0.3 102820
08:00−16вюв119494 0.0 102920
11:00−12ююв119597 0.1 102972
14:00−5ю2495100 0.4 1028163
17:00+1зюз51198100 1.0 1027540
20:00−1зюз5138996 0.1 1027547
26 января, вт
вт2623:00−3зюз4149081 0.1 1027581
02:00−2зюз5138897 0.0 1027630
05:00−4з4149096 0.0 1028561
08:00−3з5138996 0.0 1028577
11:00−4з5138894 0.0 1028568
14:00−3з51187100 0.0 1028633
17:00−4зюз41289100 0.0 1027698
20:00−4зюз41290100 0.0 1026748
27 января, ср
ср2723:00−4з4128997 0.0 1026723
02:00−5зюз5128899 0.0 1026618
05:00−6з4139098 0.0 1027572
08:00−6зюз3119197 0.0 1027449
11:00−6зюз4109198 0.0 1028497
14:00−4зюз41089100 0.0 1028583
17:00−5зюз3129096 0.0 1027519
20:00−6юз4139237 0.0 1026478
28 января, чт
чт2823:00−4юз4139068 0.0 1024633
02:00−4зюз51487100 0.0 1023695
05:00−4зюз51582100 0.0 1022647
08:00−4зюз61679100 0.0 1021615
11:00−3зюз61678100 0.0 1020665
14:00−2зюз61480100 0.0 1020730
17:00−3зюз51387100 0.0 1020638
20:00−4з41089100 0.0 1022521
29 января, пт
пт2923:00−5зюз3994100 0.2 1023395
02:00−6зюз3892100 0.1 1023274
05:00−8зюз259398 0.1 1024141
08:00−10з1292100 0.0 102521
11:00−8всв1191100 0.0 102645
14:00−5в2594100 0.1 1026368
17:00−8всв4795100 0.2 1026346
20:00−13всв4895100 0.1 1026293